This demonstration page uses our WeatherBlox Daily Observations layout. Learn more.

Left ArrowRight Arrow

44.89941, -97.11507

Hourly Observations for June 30, 2021

Temp ( °F °C ) Dew Point ( °F °C ) Humidity (%) Winds ( mph kmh ) Pressure ( in mb ) Visibility ( mi km ) Precip ( " mm )
12:53 am 00:53 Clear 66 18.9 58 14.4 75 75 ESE 5 7 30.13 1020 10 16 0.00 0.00
1:53 am 01:53 Clear 63 17.2 58 14.4 84 84 S 5 7 30.13 1020 10 16 0.00 0.00
2:53 am 02:53 Clear 63 17.2 57 13.9 81 81 SSE 3 6 30.13 1020 10 16 0.00 0.00
3:53 am 03:53 Clear 62 16.7 56 13.3 80 80 SSE 5 7 30.12 1020 10 16 0.00 0.00
4:53 am 04:53 Clear 60 15.6 56 13.3 86 86 Calm 30.12 1020 10 16 0.00 0.00
5:53 am 05:53 Sunny 56 13.3 55 12.8 97 97 Calm 30.13 1020 10 16 0.00 0.00
6:53 am 06:53 Sunny 60 15.6 56 13.3 86 86 Calm 30.13 1020 10 16 0.00 0.00
7:53 am 07:53 Sunny 68 20 59 15 73 73 SSE 3 6 30.12 1020 10 16 0.00 0.00
8:53 am 08:53 Sunny 72 22.2 61 16.1 68 68 S 5 7 30.12 1020 10 16 0.00 0.00
9:53 am 09:53 Sunny 78 25.6 60 15.6 54 54 S 3 6 30.13 1020 10 16 0.00 0.00
10:53 am 10:53 Sunny 77 25 56 13.3 48 48 Calm 30.12 1020 10 16 0.00 0.00
11:53 am 11:53 Sunny 83 28.3 50 10 32 32 NNW 5 7 30.11 1020 10 16 0.00 0.00
12:53 pm 12:53 Mostly Sunny 83 28.3 52 11.1 34 34 ESE 3 6 30.10 1019 10 16 0.00 0.00
1:53 pm 13:53 Partly Cloudy 85 29.4 53 11.7 33 33 NNW 7 11 30.10 1019 10 16 0.00 0.00
2:53 pm 14:53 Cloudy 82 27.8 55 12.8 40 40 ENE 8 13 30.09 1019 10 16 0.00 0.00
3:53 pm 15:53 Cloudy 82 27.8 57 13.9 42 42 ENE 7 11 30.09 1019 10 16 0.00 0.00
4:53 pm 16:53 Cloudy 82 27.8 57 13.9 42 42 VRB 7 11 30.08 1019 10 16 0.00 0.00
5:53 pm 17:53 Partly Cloudy 83 28.3 57 13.9 41 41 ENE 8 13 30.08 1019 10 16 0.00 0.00
6:53 pm 18:53 Sunny 83 28.3 57 13.9 41 41 E 7 11 30.06 1018 10 16 0.00 0.00
7:53 pm 19:53 Sunny 82 27.8 56 13.3 41 41 ENE 7 11 30.06 1018 10 16 0.00 0.00
8:53 pm 20:53 Sunny 78 25.6 57 13.9 48 48 ENE 7 11 30.07 1018 10 16 0.00 0.00
9:53 pm 21:53 Clear 75 23.9 57 13.9 54 54 E 5 7 30.08 1019 10 16 0.00 0.00
10:53 pm 22:53 Clear 72 22.2 58 14.4 61 61 SE 3 6 30.08 1019 10 16 0.00 0.00
11:53 pm 23:53 Clear 70 21.1 57 13.9 64 64 Calm 30.09 1019 10 16 0.00 0.00

Powered by AerisWeather